Temp
4 4 3 2 1 0 -1 -1 -1 -1 -2 -3 -3 -3 -3 -4 -6 -6 -6 -7 -6 -5 -6 -6 -6 -6 -6 -6 -6 -5 -6 -4 -3 -4 -3 -4 -5 -5 -5 -5 -6 -8 -8 -3 2 2 2 4 6 4 6 4 5 5 6 10 6 6 5 5 5 5 11
-0 -0 -0 -1 -1 -1 -2 -1 1 -2 -4 -4 -4 -5 -6 -6 -7 -8 -7 -9 -8 -8 -7 -7 -8 -7 -7 -7 -7 -7 -7 -7 -7 -7 -7 -5 -6 -5 -6 -3 -5 -7 -7 -8 -3 -0 2 2 5 2 6 4 3 4 5 4 4 5 4 4 5 4 4
-1 -1 -2 -2 -2 -1 -4 -1 -3 -3 -3 -4 -5 -5 -6 -7 -7 -7 -7 -8 -7 -7 -8 -8 -8 -8 -8 -8 -9 -8 -8 -8 -8 -8 -8 -7 -6 -7 -6 -5 -4 -6 -8 -8 -6 -1 -2 -0 2 2 2 4 4 4 4 3 3 3 4 4 4 4 4
-1 -2 -3 -3 -4 -5 -4 -3 -3 -3 -5 -2 -4 -5 -3 -5 -6 -6 -7 -7 -7 -7 -8 -8 -8 -8 -8 -9 -9 -8 -8 -8 -9 -9 -8 -7 -7 -6 -6 -5 -5 -4 -6 -6 -7 -4 -3 -1 -0 1 3 4 4 3 2 3 2 3 2 3 3 3 2
-3 -4 -3 -4 -4 -3 -4 -4 -4 -3 -4 -4 -5 -5 -5 -5 -5 -5 -6 -6 -6 -4 -6 -7 -7 -7 -8 -9 -9 -8 -8 -8 -9 -8 -8 -7 -7 -7 -6 -6 -5 -5 -4 -5 -6 -5 -2 -1 -1 1 1 3 0 1 1 2 1 1 1 1 2 2 4
-5 -4 -4 -5 -4 -4 -4 -5 -5 -5 -5 -5 -6 -5 -5 -5 -5 -5 -5 -5 -5 -6 -6 -6 -6 -6 -6 -8 -8 -7 -7 -8 -8 -7 -7 -7 -6 -5 -5 -6 -5 -4 -5 -5 -5 -5 -5 -2 -2 -2 -1 1 1 -1 -1 -1 -0 0 -0 -1 -1 0 1
-6 -5 -5 -4 -4 -4 -4 -4 -5 -5 -6 -6 -6 -6 -7 -6 -6 -6 -5 -5 -5 -5 -5 -5 -5 -6 -6 -7 -7 -7 -6 -6 -7 -7 -8 -6 -7 -5 -6 -6 -6 -5 -5 -5 -6 -5 -4 -4 -2 -1 -3 0 2 1 -1 -3 -3 -4 -3 -2 -2 -2 -0
-3 -4 -5 -4 -5 -3 -5 -5 -5 -6 -6 -6 -7 -7 -7 -7 -7 -7 -6 -6 -5 -5 -5 -5 -5 -5 -5 -5 -5 -5 -6 -6 -6 -6 -6 -4 -5 -5 -5 -6 -5 -6 -6 -6 -5 -5 -5 -4 -4 -2 -0 1 -0 -2 -3 -3 -3 -6 -5 -4 -2 -2 -3
-3 -4 -5 -5 -5 -5 -5 -5 -5 -5 -6 -7 -8 -8 -8 -8 -7 -7 -6 -6 -6 -5 -5 -4 -4 -3 -4 -3 -1 1 0 -1 -1 -3 -4 -3 -3 -4 -4 -4 -4 -5 -5 -5 -6 -5 -3 -3 -3 -2 -2 -2 -3 -4 -4 -2 -3 -5 -4 -4 -4 -3 -1
-4 -5 -5 -5 -5 -6 -6 -5 -5 -3 -1 -0 -4 -6 -6 -5 -4 -4 -4 -4 -4 -3 -2 -2 -1 -0 3 3 3 3 2 2 2 3 2 -0 -1 -1 -2 -2 -2 -3 -3 -3 -4 -3 -3 -3 -3 -2 -2 -2 -2 -1 -1 -3 -4 -7 -5 -5 -6 -4 -4
-5 -6 -6 -6 -6 -7 -6 -6 -5 -2 4 8 10 5 1 -1 -0 2 1 1 0 0 1 2 3 3 4 6 6 5 6 5 5 4 4 5 5 5 3 1 0 0 1 -0 -1 0 -0 -2 -3 -2 -2 -3 -3 -3 -4 -5 -5 -6 -6 -8 -9 -11 -6
-7 -6 -7 -7 -7 -7 -6 -6 -3 3 8 10 11 11 8 7 4 4 4 5 5 5 6 6 6 6 6 6 6 4 4 4 5 5 4 4 4 4 4 5 2 -1 -2 -2 -3 -3 -3 -3 -4 -4 -3 -4 -5 -5 -5 -4 -5 -6 -7 -8 -9 -8 -9
-5 -6 -7 -8 -7 -7 -6 -7 -3 3 8 10 11 13 10 9 9 8 8 8 7 7 7 7 6 6 6 5 5 4 -0 -3 -3 1 1 1 2 2 2 2 2 3 1 -0 -3 -4 -4 -4 -4 -6 -5 -4 -4 -3 -6 -5 -5 -5 -6 -6 -7 -7 -6
-7 -6 -8 -8 -8 -7 -7 -7 -5 2 8 10 11 12 12 10 10 9 9 9 8 8 8 7 5 4 3 1 -1 -3 -5 -6 -5 -6 -5 -5 -5 -5 -3 -1 0 1 1 1 -1 -3 -5 -4 -3 -5 -3 -2 -1 -4 -6 -6 -6 -4 -5 -6 -7 -5 -5
-7 -7 -7 -8 -8 -8 -8 -7 -3 3 8 10 11 12 12 10 9 8 8 7 6 6 5 4 3 1 -0 -1 -2 -3 -3 -5 -6 -6 -6 -6 -6 -6 -5 -5 -5 -5 -4 -3 -3 -3 -4 -3 -2 -2 -1 -0 1 -1 -1 -1 -3 -4 -6 -6 -6 -6 -5
-7 -7 -8 -7 -9 -9 -8 -7 -2 3 7 9 11 12 8 7 6 6 5 5 4 3 2 2 1 -1 -3 -3 -4 -2 1 -0 -2 -4 -5 -6 -6 -6 -5 -5 -1 2 5 2 1 -1 -1 -1 -0 3 2 2 2 2 2 -0 -4 -7 -9 -11 -13 -14 -11
-6 -6 -7 -8 -8 -9 -8 -7 -4 -0 4 8 10 9 6 5 4 3 3 2 2 2 1 -0 -2 -4 -4 -5 -6 -2 -0 1 0 -3 -5 -6 -6 -5 -5 -4 -4 1 5 9 10 11 12 12 12 10 10 9 8 4 0 -6 -11 -13 -13 -15 -16 -15 -14
-6 -6 -7 -8 -8 -8 -8 -7 -4 -2 1 6 8 7 4 4 3 2 1 0 0 -0 -0 -1 1 0 -4 -5 -6 -2 -0 2 1 -2 -3 -4 -6 -8 -8 -7 -5 -5 -3 1 3 3 2 1 1 1 1 2 3 -1 -4 -11 -14 -12 -13 -15 -15 -17 -15
-7 -7 -7 -8 -8 -5 -6 -7 -5 -2 -1 3 6 6 3 2 1 0 0 0 -0 -1 -2 -3 -2 -1 -1 -3 -3 -1 3 5 2 -1 -4 -6 -7 -8 -9 -6 -6 -8 -10 -10 -10 -8 -7 -7 -5 -5 -7 -7 -4 -4 -4 -8 -10 -11 -14 -16 -15 -15 -14
-8 -9 -8 -7 -8 -8 -8 -8 -8 -6 -3 1 5 8 4 2 -0 -2 -2 -2 -3 -4 -4 -4 -6 -4 -2 -1 -0 -0 1 3 2 -2 -3 -3 -5 -6 -6 -6 -10 -8 -7 -8 -8 -9 -8 -9 -9 -9 -9 -11 -11 -9 -8 -7 -9 -11 -12 -14 -14 -14 -14
-10 -11 -10 -9 -9 -9 -9 -9 -9 -8 -4 -3 -1 3 1 -2 -3 -4 -4 -4 -5 -5 -6 -6 -6 -8 -5 -3 -2 -2 -1 4 5 3 1 -0 -3 -5 -4 -3 -7 -7 -5 -8 -9 -9 -10 -10 -11 -12 -12 -13 -13 -12 -12 -11 -9 -9 -10 -12 -14 -15 -15
-11 -12 -11 -10 -10 -10 -10 -8 -6 -8 -5 -4 -2 2 1 -1 -2 -1 -4 -5 -5 -5 -6 -6 -6 -7 -5 -2 -2 -2 1 5 5 2 -0 -3 -2 -2 -2 -5 -5 -7 -8 -10 -11 -12 -12 -12 -13 -14 -14 -14 -14 -13 -12 -12 -12 -11 -10 -10 -10 -12 -15
-13 -13 -13 -12 -11 -11 -11 -11 -9 -5 -6 -4 -2 -1 0 1 -0 1 -0 -4 -6 -5 -5 -5 -6 -7 -3 -3 -2 -2 0 0 -1 -2 -4 -2 -2 -3 -3 -4 -7 -9 -11 -12 -12 -13 -14 -14 -14 -15 -15 -15 -15 -14 -14 -13 -12 -12 -11 -10 -9 -8 -8
-14 -15 -14 -14 -12 -10 -10 -10 -10 -6 -4 -4 -2 -1 1 2 2 2 -1 -3 -5 -5 -5 -5 -7 -8 -4 -3 -2 -2 -2 -2 -3 -4 -3 -3 -4 -4 -5 -8 -10 -11 -13 -13 -14 -14 -15 -15 -14 -15 -15 -14 -13 -13 -14 -13 -13 -13 -12 -12 -12 -10 -9
-14 -14 -14 -13 -12 -11 -9 -9 -9 -9 -5 -2 -1 -0 1 1 1 1 1 -2 -4 -5 -6 -6 -4 -4 -3 -3 -3 -3 -4 -5 -6 -5 -6 -6 -6 -6 -9 -10 -12 -13 -14 -15 -16 -16 -15 -14 -14 -13 -12 -12 -13 -12 -13 -15 -14 -13 -13 -13 -13 -13 -12
-13 -13 -13 -13 -12 -11 -10 -8 -9 -9 -10 -6 -3 -2 -2 -1 -1 -1 -1 -2 -3 -4 -4 -4 -4 -4 -4 -5 -6 -7 -9 -10 -10 -8 -7 -7 -7 -9 -10 -12 -13 -14 -15 -16 -15 -15 -15 -14 -13 -13 -12 -12 -13 -15 -15 -17 -16 -17 -16 -17 -16 -16 -15
-13 -13 -13 -13 -12 -11 -10 -9 -8 -8 -13 -11 -11 -11 -10 -9 -8 -5 -4 -6 -7 -7 -7 -6 -6 -7 -6 -6 -6 -6 -6 -7 -7 -8 -9 -10 -11 -12 -12 -13 -14 -14 -15 -15 -15 -14 -14 -13 -12 -12 -14 -15 -16 -16 -16 -17 -16 -17 -17 -17 -17 -18 -17
-13 -13 -12 -12 -11 -11 -10 -10 -9 -8 -12 -11 -12 -12 -14 -14 -14 -13 -12 -12 -11 -11 -10 -10 -8 -8 -9 -10 -11 -12 -13 -13 -13 -13 -13 -13 -14 -14 -13 -12 -10 -10 -12 -13 -13 -14 -13 -13 -14 -15 -15 -16 -16 -16 -15 -18 -17 -18 -17 -17 -18 -20 -19
-11 -10 -10 -11 -11 -11 -11 -10 -9 -8 -4 -7 -5 -7 -8 -9 -11 -10 -12 -9 -6 -8 -9 -10 -11 -12 -13 -14 -14 -14 -15 -15 -16 -16 -15 -16 -16 -16 -16 -16 -21 -17 -16 -15 -15 -15 -15 -15 -15 -15 -15 -15 -16 -16 -16 -19 -18 -17 -19 -18 -20 -20 -19
-8 -8 -9 -10 -9 -8 -9 -9 -7 -2 -1 -1 -1 -1 -1 -2 -1 -1 -3 -3 -3 -4 -7 -9 -11 -12 -13 -14 -15 -16 -16 -16 -16 -17 -17 -17 -14 -14 -16 -17 -16 -16 -16 -15 -15 -15 -16 -16 -16 -16 -16 -16 -16 -16 -17 -18 -15 -19 -19 -21 -21 -21 -20
-2 -2 -2 -4 -7 -5 -2 -2 -2 -2 -1 -1 -1 -1 -1 -1 -1 -1 -2 -2 -4 -8 -10 -11 -13 -13 -14 -14 -15 -16 -16 -16 -16 -16 -17 -16 -16 -16 -16 -14 -15 -15 -15 -15 -15 -15 -15 -15 -16 -16 -16 -17 -16 -16 -16 -20 -20 -19 -20 -21 -20 -20 -20
-2 -2 -1 -1 -2 -3 -4 -2 -2 -2 -1 -1 -1 -1 -1 -1 -1 -1 -2 -3 -3 -8 -10 -12 -13 -14 -14 -15 -16 -15 -15 -16 -16 -16 -17 -17 -17 -16 -16 -16 -16 -15 -16 -15 -16 -16 -16 -16 -16 -16 -16 -16 -16 -16 -17 -18 -19 -21 -21 -21 -21 -21 -20
-2 -2 -2 -1 -1 -0 -1 -2 -2 -2 -1 -2 -2 -2 -3 -3 -3 -3 -3 -4 -7 -10 -12 -12 -13 -14 -14 -15 -16 -15 -16 -16 -16 -16 -16 -16 -17 -16 -15 -15 -14 -13 -14 -15 -15 -15 -16 -16 -16 -16 -16 -16 -16 -17 -18 -17 -18 -19 -20 -20 -21 -20 -19
-4 -4 -3 -3 -2 -2 -2 -2 -3 -3 -3 -3 -3 -3 -3 -4 -5 -4 -3 -5 -9 -11 -13 -13 -14 -14 -15 -15 -15 -15 -15 -16 -16 -15 -16 -16 -15 -15 -15 -14 -14 -16 -16 -15 -15 -15 -15 -15 -16 -16 -16 -17 -17 -17 -17 -18 -18 -19 -20 -20 -20 -21 -20
-11 -7 -5 -6 -6 -5 -5 -5 -5 -5 -5 -4 -4 -4 -4 -4 -7 -10 -11 -12 -11 -11 -12 -13 -13 -14 -14 -14 -15 -15 -15 -15 -15 -15 -15 -15 -15 -15 -15 -14 -15 -15 -15 -16 -16 -16 -16 -16 -16 -16 -16 -16 -17 -17 -18 -18 -18 -19 -19 -19 -19 -19 -20
-12 -12 -9 -7 -6 -6 -5 -5 -5 -5 -5 -5 -4 -4 -4 -10 -11 -12 -13 -14 -15 -15 -14 -13 -14 -14 -14 -14 -15 -15 -15 -15 -15 -15 -14 -14 -14 -14 -14 -14 -14 -14 -15 -14 -14 -15 -15 -15 -16 -15 -16 -16 -16 -17 -17 -17 -18 -18 -18 -17 -18 -18 -19
MSLP
1039.46 1039.58 1039.74 1039.94 1040.10 1040.22 1040.30 1040.34 1040.42 1040.50 1040.54 1040.54 1040.54 1040.54 1040.54 1040.50 1040.54 1040.46 1040.38 1040.42 1040.38 1040.46 1040.46 1040.42 1040.38 1040.38 1040.50 1040.58 1040.54 1040.42 1040.50 1040.50 1040.38 1040.42 1040.34 1040.26 1040.26 1040.14 1039.98 1039.90 1039.62 1038.58 1036.06 1034.26 1035.50 1034.66 1034.30 1033.74 1033.66 1032.86 1032.86 1032.30 1032.10 1031.86 1031.78 1031.70 1031.62 1031.46 1031.26 1030.98 1030.70 1030.38 1030.02
1039.42 1039.54 1039.74 1039.94 1040.06 1040.18 1040.22 1040.30 1040.34 1040.38 1040.42 1040.42 1040.42 1040.34 1040.42 1040.30 1040.22 1040.22 1040.14 1040.22 1040.14 1040.18 1040.30 1040.30 1040.18 1040.10 1040.26 1040.34 1040.30 1040.18 1040.22 1040.22 1040.26 1040.22 1040.14 1039.94 1039.94 1039.78 1039.50 1039.50 1039.30 1038.34 1037.66 1034.34 1034.66 1034.94 1034.26 1033.86 1033.66 1032.82 1032.46 1032.34 1031.82 1031.62 1031.54 1031.42 1031.30 1031.22 1031.10 1030.74 1030.46 1030.18 1029.74
1039.34 1039.50 1039.70 1039.90 1040.02 1040.10 1040.14 1040.18 1040.30 1040.34 1040.38 1040.34 1040.26 1040.10 1040.02 1040.02 1039.98 1039.90 1039.86 1039.86 1039.82 1039.86 1039.94 1039.98 1039.90 1039.78 1039.94 1040.06 1040.02 1039.86 1039.90 1039.94 1039.94 1039.90 1039.82 1039.58 1039.50 1039.38 1039.18 1039.06 1038.90 1038.50 1037.14 1036.22 1034.26 1035.02 1034.10 1033.86 1033.30 1033.14 1032.10 1032.18 1032.02 1031.62 1031.46 1031.10 1031.02 1030.90 1030.70 1030.58 1030.34 1029.98 1029.54
1039.26 1039.50 1039.70 1039.82 1039.94 1039.98 1040.02 1040.10 1040.18 1040.22 1040.22 1040.14 1040.06 1039.90 1039.70 1039.62 1039.66 1039.62 1039.62 1039.58 1039.54 1039.54 1039.58 1039.58 1039.54 1039.38 1039.62 1039.70 1039.58 1039.42 1039.46 1039.54 1039.58 1039.54 1039.42 1039.18 1038.94 1038.98 1038.70 1038.54 1038.50 1038.06 1037.46 1036.26 1035.18 1033.74 1034.66 1033.46 1033.46 1032.38 1032.38 1031.90 1031.70 1031.46 1031.06 1031.06 1030.62 1030.70 1030.50 1030.18 1030.06 1029.82 1029.34
1039.30 1039.50 1039.62 1039.70 1039.74 1039.78 1039.86 1039.90 1039.94 1039.94 1039.90 1039.86 1039.78 1039.66 1039.50 1039.38 1039.34 1039.30 1039.26 1039.22 1039.18 1039.14 1039.14 1039.14 1039.06 1038.94 1039.14 1039.22 1039.18 1038.94 1039.02 1039.06 1039.06 1038.98 1038.98 1038.62 1038.46 1038.42 1038.18 1038.14 1037.86 1037.54 1037.30 1036.42 1035.42 1033.90 1033.90 1033.82 1033.14 1032.74 1032.06 1031.90 1031.50 1030.98 1030.90 1030.58 1030.50 1030.42 1030.10 1029.86 1029.86 1029.50 1029.10
1039.22 1039.34 1039.42 1039.50 1039.50 1039.58 1039.62 1039.66 1039.70 1039.62 1039.54 1039.54 1039.50 1039.42 1039.30 1039.18 1039.10 1038.98 1038.90 1038.82 1038.78 1038.74 1038.78 1038.74 1038.62 1038.58 1038.62 1038.70 1038.66 1038.42 1038.42 1038.46 1038.42 1038.42 1038.30 1038.02 1037.86 1037.78 1037.70 1037.50 1037.30 1037.10 1036.74 1036.34 1035.30 1034.78 1033.26 1033.50 1033.22 1032.14 1032.02 1031.58 1031.50 1031.10 1030.26 1030.06 1030.14 1029.98 1029.94 1029.74 1029.34 1029.14 1028.86
1039.06 1039.18 1039.26 1039.22 1039.30 1039.30 1039.34 1039.34 1039.34 1039.30 1039.22 1039.18 1039.18 1039.14 1039.06 1038.94 1038.78 1038.66 1038.54 1038.38 1038.34 1038.30 1038.30 1038.22 1038.14 1038.06 1038.10 1038.10 1038.02 1038.02 1037.86 1037.86 1037.82 1037.82 1037.66 1037.50 1037.38 1037.34 1037.22 1036.98 1036.74 1036.58 1036.22 1035.78 1035.10 1034.30 1033.98 1033.18 1032.74 1032.70 1031.34 1031.14 1031.26 1030.94 1030.86 1030.02 1029.26 1029.30 1029.70 1029.58 1029.26 1028.42 1028.14
1038.82 1038.90 1039.02 1038.98 1038.98 1038.94 1038.98 1038.98 1038.98 1038.94 1038.90 1038.86 1038.86 1038.86 1038.74 1038.62 1038.46 1038.30 1038.14 1037.98 1037.90 1037.86 1037.74 1037.66 1037.58 1037.50 1037.42 1037.38 1037.30 1037.30 1037.22 1037.34 1037.26 1037.22 1037.10 1036.86 1036.86 1036.74 1036.66 1036.38 1036.10 1035.94 1035.66 1035.26 1034.70 1034.06 1033.26 1032.98 1032.42 1031.74 1031.46 1030.98 1030.78 1030.58 1030.30 1030.42 1030.02 1029.06 1028.50 1028.62 1029.02 1028.90 1027.94
1038.66 1038.74 1038.70 1038.66 1038.66 1038.66 1038.70 1038.66 1038.58 1038.58 1038.54 1038.54 1038.46 1038.50 1038.38 1038.26 1038.10 1037.98 1037.74 1037.46 1037.34 1037.22 1037.14 1037.02 1036.94 1036.78 1036.66 1036.62 1036.46 1036.42 1036.38 1036.38 1036.46 1036.54 1036.34 1036.06 1036.14 1036.02 1035.90 1035.62 1035.42 1035.22 1034.98 1034.54 1034.22 1033.30 1032.94 1032.34 1031.74 1031.30 1030.98 1030.54 1030.58 1030.46 1030.26 1029.98 1030.22 1029.34 1029.18 1028.58 1028.06 1027.90 1028.02
1038.42 1038.46 1038.38 1038.30 1038.30 1038.34 1038.34 1038.30 1038.22 1038.10 1037.98 1037.90 1037.86 1037.86 1037.86 1037.74 1037.58 1037.42 1037.22 1036.94 1036.66 1036.42 1036.30 1036.14 1036.02 1035.82 1035.54 1035.42 1035.42 1035.42 1035.42 1035.46 1035.46 1035.38 1035.34 1035.30 1035.42 1035.26 1035.10 1034.78 1034.50 1034.22 1033.94 1033.58 1033.06 1032.50 1032.02 1031.46 1030.90 1030.74 1030.66 1030.50 1030.30 1030.42 1030.22 1030.18 1029.98 1029.38 1028.54 1028.46 1027.78 1027.26 1027.38
1038.10 1038.06 1038.10 1038.06 1038.02 1037.98 1037.94 1037.86 1037.82 1037.70 1037.34 1036.78 1036.42 1036.46 1036.62 1036.74 1036.50 1036.22 1036.06 1035.86 1035.70 1035.42 1035.18 1035.02 1034.90 1034.78 1034.62 1034.42 1034.34 1034.38 1034.38 1034.42 1034.46 1034.50 1034.50 1034.46 1034.38 1034.30 1034.18 1033.90 1033.58 1033.14 1032.98 1032.62 1032.14 1031.70 1031.50 1031.06 1030.62 1030.50 1030.74 1030.62 1030.50 1030.50 1030.54 1030.14 1029.94 1029.54 1028.78 1028.58 1028.10 1026.50 1025.82
1037.70 1037.70 1037.78 1037.82 1037.74 1037.62 1037.50 1037.46 1037.38 1037.14 1036.50 1036.02 1035.66 1035.50 1035.38 1035.30 1035.26 1035.18 1034.94 1034.70 1034.50 1034.30 1034.14 1033.98 1033.90 1033.78 1033.74 1033.66 1033.70 1033.82 1033.94 1034.06 1034.10 1034.10 1034.10 1034.06 1033.98 1033.90 1033.74 1033.66 1033.50 1033.22 1032.98 1032.74 1032.34 1031.90 1031.54 1031.34 1030.98 1030.82 1030.86 1030.70 1030.74 1030.38 1030.14 1030.02 1029.74 1029.42 1029.10 1028.42 1028.02 1027.66 1026.74
1037.34 1037.30 1037.42 1037.50 1037.42 1037.22 1037.06 1037.02 1036.94 1036.70 1036.06 1035.58 1035.18 1034.86 1034.74 1034.58 1034.42 1034.22 1033.98 1033.82 1033.70 1033.58 1033.46 1033.30 1033.18 1033.06 1033.10 1033.18 1033.42 1033.58 1033.86 1034.06 1034.06 1034.02 1033.94 1033.86 1033.70 1033.58 1033.50 1033.38 1033.22 1033.06 1032.82 1032.66 1032.42 1031.98 1031.38 1031.38 1031.18 1031.10 1030.74 1030.86 1030.58 1030.30 1029.82 1029.46 1029.34 1029.06 1028.74 1028.46 1028.06 1027.30 1026.66
1036.94 1036.98 1037.06 1037.14 1037.14 1036.90 1036.62 1036.58 1036.58 1036.34 1035.66 1035.14 1034.74 1034.42 1034.14 1033.94 1033.74 1033.50 1033.26 1033.10 1032.98 1032.90 1032.82 1032.86 1032.90 1032.98 1033.02 1033.14 1033.38 1033.62 1033.78 1033.90 1033.86 1033.82 1033.74 1033.62 1033.50 1033.34 1033.14 1032.98 1032.78 1032.62 1032.42 1032.26 1032.02 1031.74 1031.22 1030.94 1031.34 1030.82 1030.42 1030.22 1030.18 1029.98 1029.70 1029.38 1028.82 1028.66 1028.18 1028.02 1027.82 1027.46 1027.02
1036.54 1036.54 1036.70 1036.78 1036.82 1036.62 1036.22 1036.06 1036.14 1035.74 1035.14 1034.66 1034.26 1033.94 1033.70 1033.46 1033.34 1033.14 1032.90 1032.82 1032.82 1032.82 1032.82 1032.82 1032.90 1032.98 1033.06 1033.10 1033.22 1033.30 1033.42 1033.46 1033.42 1033.34 1033.22 1033.06 1032.86 1032.74 1032.54 1032.42 1032.26 1032.14 1031.98 1031.74 1031.54 1031.30 1030.94 1030.70 1030.66 1030.30 1029.86 1029.58 1029.42 1029.42 1029.26 1029.10 1028.82 1028.62 1028.50 1028.30 1027.78 1027.34 1027.02
1036.38 1036.34 1036.34 1036.34 1036.38 1036.30 1035.86 1035.54 1035.62 1035.30 1034.78 1034.30 1033.94 1033.66 1033.50 1033.38 1033.22 1032.98 1032.74 1032.62 1032.62 1032.66 1032.66 1032.70 1032.74 1032.82 1032.82 1032.82 1032.86 1032.86 1032.90 1032.86 1032.82 1032.70 1032.54 1032.34 1032.18 1032.02 1031.86 1031.62 1031.46 1031.26 1030.94 1030.74 1030.50 1030.30 1030.10 1029.86 1029.66 1029.26 1029.02 1028.86 1028.90 1028.86 1028.82 1028.90 1028.98 1028.98 1028.82 1028.46 1027.66 1026.94 1026.62
1035.82 1035.82 1035.82 1035.82 1035.90 1035.86 1035.50 1035.10 1035.06 1035.02 1034.62 1034.14 1033.74 1033.46 1033.34 1033.26 1033.14 1032.86 1032.58 1032.34 1032.30 1032.26 1032.30 1032.34 1032.42 1032.50 1032.50 1032.50 1032.46 1032.46 1032.46 1032.38 1032.30 1032.10 1031.98 1031.82 1031.58 1031.30 1031.10 1030.82 1030.90 1030.74 1030.42 1029.94 1029.46 1029.06 1028.74 1028.46 1028.30 1028.34 1028.34 1028.34 1028.38 1028.58 1028.86 1029.10 1029.06 1028.86 1029.06 1028.66 1027.62 1026.26 1026.34
1035.46 1035.38 1035.42 1035.42 1035.34 1035.34 1035.14 1034.66 1034.50 1034.58 1034.38 1033.98 1033.50 1033.26 1033.14 1033.02 1032.86 1032.54 1032.30 1032.06 1032.02 1031.98 1031.86 1031.82 1031.82 1031.90 1031.98 1032.02 1031.98 1031.98 1031.90 1031.78 1031.66 1031.46 1031.26 1031.06 1030.94 1030.82 1030.70 1030.34 1030.42 1030.26 1030.02 1029.82 1029.54 1029.38 1029.30 1029.26 1029.22 1029.22 1029.14 1029.10 1029.06 1029.18 1029.46 1029.50 1028.94 1028.70 1029.02 1028.50 1028.18 1027.14 1026.22
1035.18 1034.98 1034.90 1034.94 1034.94 1034.82 1034.70 1034.34 1034.06 1034.02 1034.02 1033.78 1033.30 1032.98 1032.90 1032.82 1032.62 1032.30 1031.90 1031.74 1031.50 1031.46 1031.46 1031.46 1031.50 1031.50 1031.50 1031.50 1031.42 1031.42 1031.22 1030.86 1030.86 1030.82 1030.82 1030.86 1030.78 1030.42 1030.10 1029.78 1029.82 1029.70 1029.74 1029.70 1029.58 1029.38 1029.38 1029.14 1029.14 1029.10 1029.10 1029.02 1028.98 1028.98 1029.02 1029.06 1028.82 1028.74 1028.74 1028.30 1027.86 1027.50 1026.78
1034.98 1034.78 1034.42 1034.46 1034.54 1034.46 1034.34 1034.18 1033.70 1033.58 1033.62 1033.46 1033.02 1032.58 1032.42 1032.38 1032.34 1031.98 1031.78 1031.70 1031.54 1031.30 1031.06 1031.10 1031.10 1031.14 1031.10 1031.02 1030.90 1030.86 1030.78 1030.62 1030.58 1030.50 1030.38 1030.30 1030.02 1029.62 1029.14 1029.30 1029.54 1029.50 1029.46 1029.18 1029.10 1028.82 1028.82 1028.66 1028.70 1028.70 1028.70 1028.66 1028.70 1028.66 1028.62 1028.50 1028.46 1028.38 1028.30 1027.98 1027.54 1027.34 1027.14
1034.78 1034.70 1034.26 1034.10 1034.14 1034.10 1033.90 1033.82 1033.54 1033.14 1033.14 1033.02 1032.90 1032.54 1032.38 1032.30 1032.18 1031.94 1031.78 1031.50 1031.26 1031.06 1030.82 1030.62 1030.62 1030.66 1030.70 1030.62 1030.50 1030.46 1030.38 1030.06 1029.70 1029.62 1029.54 1029.38 1029.26 1029.22 1029.18 1029.30 1029.18 1029.02 1029.06 1028.86 1028.70 1028.50 1028.34 1028.30 1028.30 1028.30 1028.30 1028.30 1028.34 1028.30 1028.26 1028.18 1028.02 1027.90 1027.78 1027.62 1027.30 1026.90 1026.50
1034.54 1034.46 1034.10 1033.78 1033.70 1033.58 1033.34 1033.22 1033.14 1032.82 1032.62 1032.50 1032.38 1032.14 1031.90 1031.82 1031.58 1031.46 1031.34 1031.14 1030.86 1030.66 1030.46 1030.26 1030.18 1030.10 1030.14 1030.10 1029.98 1029.90 1029.78 1029.34 1029.10 1029.10 1029.14 1029.14 1029.18 1029.10 1029.10 1028.98 1028.86 1028.70 1028.62 1028.54 1028.42 1028.26 1028.02 1027.90 1027.90 1027.82 1027.78 1027.82 1027.78 1027.82 1027.82 1027.74 1027.62 1027.46 1027.26 1027.06 1026.82 1026.54 1026.10
1034.22 1034.22 1033.90 1033.46 1033.06 1032.90 1032.74 1032.66 1032.58 1032.34 1032.10 1031.94 1031.78 1031.58 1031.46 1031.26 1031.10 1030.94 1030.82 1030.66 1030.30 1030.10 1029.86 1029.78 1029.70 1029.66 1029.62 1029.58 1029.54 1029.46 1029.30 1029.10 1029.10 1029.10 1029.06 1028.98 1028.90 1028.78 1028.70 1028.62 1028.54 1028.50 1028.46 1028.26 1028.10 1027.98 1027.54 1027.30 1027.38 1027.30 1027.10 1027.14 1027.14 1027.18 1027.26 1027.22 1027.14 1026.98 1026.82 1026.54 1026.26 1025.98 1025.66
1033.86 1033.86 1033.58 1033.06 1032.38 1032.02 1031.98 1031.98 1031.90 1031.66 1031.50 1031.34 1031.18 1030.98 1030.82 1030.66 1030.46 1030.34 1030.22 1030.14 1029.86 1029.70 1029.58 1029.38 1029.34 1029.38 1029.26 1029.22 1029.10 1028.98 1028.86 1028.78 1028.74 1028.62 1028.50 1028.50 1028.42 1028.42 1028.42 1028.38 1028.30 1028.22 1028.14 1027.98 1027.70 1027.38 1027.02 1026.74 1026.74 1026.82 1026.58 1026.54 1026.54 1026.54 1026.58 1026.62 1026.58 1026.50 1026.34 1026.14 1025.82 1025.50 1025.18
1033.42 1033.26 1032.98 1032.74 1032.18 1031.58 1031.34 1031.26 1031.26 1031.10 1030.98 1030.82 1030.62 1030.46 1030.30 1030.14 1030.02 1029.86 1029.78 1029.66 1029.42 1029.46 1029.30 1029.18 1029.02 1028.98 1028.86 1028.74 1028.62 1028.50 1028.42 1028.30 1028.26 1028.22 1028.18 1028.14 1028.14 1028.14 1028.10 1028.02 1027.98 1027.82 1027.78 1027.50 1027.02 1026.78 1026.50 1026.18 1026.14 1026.14 1025.98 1025.98 1026.02 1025.98 1026.06 1026.06 1025.98 1025.90 1025.78 1025.66 1025.42 1025.10 1024.86
1032.90 1032.70 1032.54 1032.26 1031.78 1031.38 1031.02 1030.78 1030.66 1030.50 1030.50 1030.46 1030.30 1030.18 1030.02 1029.82 1029.66 1029.58 1029.50 1029.34 1029.10 1028.94 1028.82 1028.74 1028.62 1028.54 1028.46 1028.38 1028.26 1028.26 1028.10 1027.90 1027.82 1027.82 1027.70 1027.66 1027.66 1027.66 1027.62 1027.58 1027.58 1027.42 1027.26 1026.78 1026.50 1026.26 1025.86 1025.54 1025.62 1025.58 1025.54 1025.58 1025.62 1025.54 1025.42 1025.50 1025.38 1025.34 1025.18 1025.18 1024.94 1024.62 1024.10
1032.42 1032.18 1031.98 1031.74 1031.26 1030.98 1030.78 1030.50 1030.14 1029.98 1029.98 1030.02 1030.02 1029.94 1029.82 1029.70 1029.54 1029.42 1029.26 1029.06 1028.86 1028.74 1028.58 1028.38 1028.30 1028.18 1028.06 1027.90 1027.78 1027.70 1027.46 1027.30 1027.18 1027.14 1027.10 1027.22 1027.30 1027.30 1027.26 1027.22 1027.14 1026.94 1026.70 1026.34 1026.10 1025.70 1025.38 1025.18 1025.14 1025.18 1025.18 1025.10 1025.10 1024.94 1024.90 1025.02 1024.86 1024.74 1024.46 1024.54 1024.38 1024.14 1023.34
1031.74 1031.54 1031.34 1031.10 1030.78 1030.58 1030.30 1030.02 1029.66 1029.46 1029.50 1029.50 1029.50 1029.42 1029.46 1029.38 1029.30 1029.18 1029.06 1028.78 1028.58 1028.46 1028.30 1028.14 1027.90 1027.78 1027.70 1027.62 1027.46 1027.38 1027.30 1027.14 1027.10 1026.98 1026.90 1026.86 1026.90 1026.90 1026.86 1026.70 1026.54 1026.38 1026.18 1025.90 1025.74 1025.38 1025.14 1024.90 1024.86 1024.70 1024.58 1024.58 1024.54 1024.34 1024.30 1024.42 1024.38 1024.18 1023.94 1023.94 1023.90 1023.54 1022.74
1030.94 1030.74 1030.70 1030.74 1030.50 1030.26 1029.78 1029.46 1029.06 1028.70 1028.94 1028.90 1028.86 1028.78 1028.70 1028.58 1028.54 1028.46 1028.38 1028.18 1027.94 1027.78 1027.66 1027.62 1027.46 1027.30 1027.22 1027.18 1027.02 1026.78 1026.70 1026.66 1026.62 1026.46 1026.46 1026.46 1026.38 1026.42 1026.34 1026.26 1026.22 1025.90 1025.58 1025.42 1025.34 1024.98 1024.74 1024.42 1024.38 1024.14 1024.06 1024.02 1023.86 1023.70 1023.74 1023.82 1023.82 1023.70 1023.62 1023.42 1023.46 1022.98 1022.50
1030.30 1030.02 1030.22 1030.18 1029.74 1029.78 1029.38 1028.82 1028.34 1028.34 1028.38 1028.22 1028.14 1028.02 1027.94 1027.82 1027.66 1027.58 1027.42 1027.26 1027.22 1027.18 1026.90 1026.66 1026.66 1026.46 1026.50 1026.42 1026.46 1026.26 1026.06 1026.02 1026.02 1025.86 1025.78 1025.78 1025.78 1025.70 1025.66 1025.58 1025.46 1025.30 1025.10 1024.98 1024.78 1024.54 1024.34 1024.02 1023.94 1023.62 1023.58 1023.46 1023.26 1023.02 1023.14 1023.22 1023.22 1023.06 1023.10 1022.98 1022.74 1022.46 1022.06
1029.62 1029.54 1029.46 1029.46 1028.94 1028.58 1028.58 1028.22 1028.02 1027.94 1027.74 1027.66 1027.58 1027.46 1027.38 1027.26 1027.18 1027.06 1026.94 1026.82 1026.78 1026.62 1026.50 1026.18 1026.02 1025.74 1025.94 1025.90 1025.90 1025.74 1025.58 1025.58 1025.50 1025.34 1025.22 1025.02 1025.06 1025.02 1024.94 1024.78 1024.66 1024.54 1024.54 1024.38 1024.18 1023.98 1023.82 1023.62 1023.46 1023.18 1023.06 1022.94 1022.66 1022.54 1022.42 1022.62 1022.66 1022.66 1022.62 1022.50 1022.26 1021.94 1021.46
1029.06 1028.90 1028.78 1028.62 1028.50 1028.18 1027.82 1027.66 1027.54 1027.42 1027.30 1027.22 1027.10 1026.98 1026.90 1026.78 1026.70 1026.58 1026.50 1026.42 1026.54 1026.14 1025.66 1025.82 1025.62 1025.30 1025.22 1025.38 1025.34 1025.10 1025.18 1025.10 1024.98 1024.82 1024.70 1024.54 1024.34 1024.10 1024.18 1024.18 1024.02 1023.98 1023.98 1023.74 1023.62 1023.42 1023.26 1023.10 1022.98 1022.78 1022.58 1022.46 1022.22 1022.14 1021.94 1021.98 1021.94 1022.02 1022.02 1021.94 1021.90 1021.58 1021.30
1028.50 1028.34 1028.22 1028.06 1027.86 1027.70 1027.46 1027.18 1027.06 1026.94 1026.86 1026.78 1026.70 1026.62 1026.50 1026.34 1026.22 1026.14 1026.06 1026.10 1025.98 1025.70 1025.18 1025.18 1025.22 1025.02 1024.82 1024.86 1024.74 1024.62 1024.70 1024.54 1024.46 1024.30 1024.14 1024.02 1023.82 1023.46 1023.30 1023.42 1023.34 1023.42 1023.30 1023.14 1023.02 1022.90 1022.66 1022.54 1022.42 1022.30 1022.06 1021.90 1021.78 1021.66 1021.38 1021.34 1021.34 1021.34 1021.38 1021.30 1021.10 1020.78 1020.66
1028.10 1027.98 1027.86 1027.62 1027.46 1027.34 1027.18 1026.98 1026.82 1026.70 1026.58 1026.46 1026.30 1026.22 1026.10 1025.94 1025.66 1025.50 1025.54 1025.66 1025.38 1025.26 1024.86 1024.74 1024.74 1024.54 1024.42 1024.34 1024.34 1024.22 1024.18 1023.98 1023.78 1023.70 1023.54 1023.34 1023.18 1022.98 1022.86 1022.74 1022.82 1022.86 1022.66 1022.54 1022.42 1022.26 1022.02 1021.94 1021.86 1021.82 1021.62 1021.34 1021.22 1021.14 1021.02 1020.86 1020.78 1020.82 1020.78 1020.58 1020.46 1020.18 1019.94
1027.54 1027.66 1027.58 1027.30 1027.18 1027.06 1026.98 1026.74 1026.54 1026.38 1026.26 1026.14 1025.94 1025.82 1025.62 1025.42 1025.14 1024.98 1025.10 1025.18 1024.98 1024.74 1024.42 1024.26 1024.10 1023.98 1023.78 1023.82 1023.70 1023.58 1023.58 1023.30 1023.14 1023.02 1022.90 1022.70 1022.50 1022.38 1022.26 1022.18 1022.18 1022.10 1022.02 1021.94 1021.82 1021.70 1021.54 1021.50 1021.42 1021.30 1021.18 1020.98 1020.70 1020.50 1020.34 1020.22 1020.18 1020.18 1020.14 1019.94 1019.70 1019.58 1019.34
1026.94 1026.94 1027.02 1027.02 1026.82 1026.66 1026.46 1026.26 1026.10 1025.94 1025.82 1025.70 1025.54 1025.38 1025.30 1024.98 1024.70 1024.78 1024.62 1024.66 1024.62 1024.50 1024.14 1024.02 1023.74 1023.66 1023.42 1023.38 1023.26 1023.18 1023.02 1022.86 1022.62 1022.42 1022.30 1022.14 1022.06 1021.78 1021.66 1021.58 1021.50 1021.42 1021.34 1021.22 1021.18 1020.98 1020.94 1020.90 1020.82 1020.74 1020.62 1020.46 1020.18 1019.98 1019.78 1019.66 1019.62 1019.50 1019.46 1019.34 1019.14 1018.98 1018.78
Wind_Speed
2 2 1 1 1 2 2 2 3 3 3 4 4 4 4 4 4 4 5 4 5 4 4 6 6 7 5 4 6 6 5 5 5 4 5 5 5 7 7 7 8 13 19 12 5 10 9 10 12 12 9 12 9 9 8 11 9 10 9 9 9 10 19
2 1 1 2 2 2 3 2 3 3 4 5 5 5 3 4 5 5 5 4 6 5 4 5 7 7 5 5 7 7 6 5 5 5 6 7 6 7 8 7 8 12 12 22 6 10 9 11 8 14 8 11 13 11 10 11 10 8 7 9 9 9 10
2 2 2 3 4 4 3 4 4 3 4 5 5 7 5 4 4 5 6 6 7 6 4 6 6 8 5 4 6 7 6 5 6 5 7 9 7 8 8 7 9 10 13 15 17 7 14 9 10 10 14 11 10 11 11 12 9 9 8 7 9 10 9
2 2 4 4 4 4 4 4 4 4 4 5 5 6 7 5 4 5 6 6 7 6 6 6 7 8 5 5 7 8 6 5 5 6 7 8 8 8 9 8 8 10 11 13 16 12 9 12 11 12 11 11 10 11 11 9 10 8 9 10 8 9 10
2 3 4 5 5 4 4 5 4 5 5 5 4 5 6 6 6 6 7 7 7 7 7 7 8 8 5 5 8 8 6 5 7 7 7 9 8 8 8 7 8 10 10 13 15 16 9 10 11 10 12 9 11 10 9 9 9 9 10 9 7 9 10
3 4 5 4 5 5 5 5 5 5 6 5 4 5 6 7 7 7 7 7 7 7 6 8 9 8 7 7 8 9 7 6 7 8 8 10 9 8 7 8 9 9 11 12 14 13 16 8 12 12 9 9 8 11 13 10 8 7 6 7 10 8 9
4 4 4 5 4 5 5 5 4 5 6 5 5 6 7 8 8 8 8 7 8 7 7 8 9 9 8 9 9 9 10 9 8 8 9 10 10 9 8 9 9 9 11 11 13 13 11 13 9 9 14 8 8 10 8 13 12 9 4 7 9 13 9
5 5 4 5 5 5 4 5 5 5 5 6 6 6 7 7 8 9 9 8 8 8 9 9 9 9 9 10 10 10 9 8 9 8 9 9 8 8 9 9 9 9 9 10 11 12 13 9 12 10 9 9 7 8 6 3 9 15 15 11 7 8 14
5 5 6 5 5 5 4 5 6 5 6 6 7 6 8 8 9 9 10 10 9 9 9 9 9 10 10 11 15 18 16 14 13 9 9 9 8 9 9 10 9 9 9 10 10 12 10 11 11 9 10 9 7 7 10 9 8 13 11 13 13 9 8
5 5 6 6 6 5 5 6 5 7 12 11 8 7 8 8 9 10 10 10 10 10 10 11 10 11 18 19 18 18 19 18 19 20 15 11 9 10 10 10 11 10 9 10 11 11 11 11 11 10 8 9 8 8 9 11 11 14 14 13 13 11 5
6 5 5 6 6 7 6 6 6 10 16 18 19 12 9 11 12 11 10 11 11 11 10 10 10 9 12 15 15 14 18 17 19 19 21 23 21 17 12 9 9 9 9 9 9 9 9 10 11 10 8 9 10 8 9 11 10 11 13 11 13 18 8
6 6 5 5 6 7 7 7 8 15 18 19 19 17 10 7 7 9 10 12 11 10 10 11 10 10 10 10 9 8 6 8 10 13 15 16 17 19 21 20 16 13 11 10 10 12 11 11 10 11 9 10 9 10 10 10 11 11 11 13 12 11 14
6 6 5 5 8 9 8 7 8 14 19 19 20 20 15 9 10 10 9 10 10 11 12 11 10 9 7 6 8 8 5 6 8 13 15 16 18 18 19 19 21 21 15 11 12 12 13 9 9 11 11 8 11 10 13 11 11 10 10 10 12 12 13
6 6 6 6 8 9 8 8 7 15 19 20 20 20 16 10 10 9 10 11 10 9 9 8 8 8 8 8 7 6 6 6 8 8 8 9 8 9 11 15 18 19 22 18 13 12 14 11 8 12 12 13 13 14 13 11 11 10 11 10 11 13 15
6 7 6 7 7 8 10 8 10 16 19 20 20 19 16 9 8 8 8 8 9 11 11 11 10 10 10 9 9 8 8 8 8 8 9 9 10 10 9 10 10 10 10 10 10 11 13 14 12 14 15 13 11 10 10 9 9 10 11 13 14 14 11
5 7 7 7 7 8 10 9 10 16 19 20 19 19 10 8 9 9 9 9 9 9 9 9 9 9 9 10 9 11 15 13 9 9 10 11 10 10 9 10 11 15 16 14 12 13 14 13 14 19 15 13 9 7 5 7 8 9 9 11 12 12 9
7 6 6 6 6 8 9 10 10 14 18 19 20 15 7 7 7 9 10 11 10 10 9 8 7 7 8 9 8 11 14 15 14 10 11 11 13 12 10 8 5 10 17 22 24 25 25 24 23 22 24 25 26 18 14 10 10 10 6 9 13 14 9
6 6 6 6 8 7 9 11 10 13 16 19 19 15 10 7 7 9 10 10 10 9 9 10 14 11 8 8 9 11 14 17 14 12 13 12 9 12 13 12 9 8 10 14 16 16 17 18 19 20 20 21 21 19 12 6 10 8 7 10 8 13 12
6 7 7 6 7 9 10 11 11 13 14 17 18 14 8 8 8 10 10 9 9 7 7 7 7 10 10 9 10 13 17 19 15 10 8 9 11 14 14 12 7 5 4 5 6 8 7 9 9 9 8 8 12 14 13 8 9 7 6 9 9 10 11
6 8 9 6 6 8 8 10 11 10 14 16 18 19 11 6 7 9 10 9 9 10 9 8 6 7 10 14 15 16 17 19 18 14 12 11 11 11 13 3 2 6 7 8 8 10 8 10 8 8 7 6 5 6 6 8 7 7 7 9 9 9 9
7 7 10 8 7 7 9 8 10 11 14 15 16 19 15 8 9 9 9 9 10 9 10 9 7 5 8 12 13 14 17 19 20 17 13 10 8 7 9 10 9 9 10 10 8 9 9 8 7 7 6 6 6 6 6 7 8 8 8 8 9 10 10
7 7 9 9 8 8 10 8 11 11 13 15 16 18 18 11 9 9 8 10 10 9 9 9 8 7 7 12 14 16 18 21 19 20 11 9 15 20 21 14 10 9 7 7 8 8 9 8 7 7 6 6 6 7 8 8 8 8 9 9 9 10 11
7 7 9 10 9 8 8 8 9 13 12 14 16 17 17 18 13 14 11 10 11 10 10 8 8 7 12 12 15 16 18 19 20 17 12 18 20 18 19 15 8 7 8 8 9 9 10 9 7 7 7 6 7 6 7 8 8 9 9 10 10 10 11
6 6 8 10 10 9 6 6 7 9 13 12 15 16 18 17 18 17 10 9 9 8 8 9 8 6 11 14 15 17 17 18 17 13 19 20 19 18 15 9 9 7 8 9 9 10 10 9 7 6 7 7 7 7 7 8 8 9 10 10 10 11 12
6 7 8 8 10 10 8 6 6 7 8 13 14 16 16 16 16 14 13 11 9 9 9 9 12 12 13 14 18 20 20 16 15 18 18 18 18 16 8 8 7 8 7 9 10 9 9 9 7 7 8 7 6 6 5 5 6 7 8 9 10 11 11
7 7 7 9 9 10 9 8 7 7 6 7 9 9 11 14 13 13 13 14 12 12 13 14 14 16 17 14 13 11 9 9 9 11 15 17 16 9 8 7 7 8 9 10 9 9 10 9 7 7 7 6 5 6 7 6 6 6 7 7 8 9 9
8 8 8 9 10 9 8 9 8 7 4 6 6 7 7 7 8 9 11 10 9 9 10 12 13 11 14 15 16 17 17 16 14 11 10 7 6 7 8 8 8 8 9 10 9 10 9 8 7 6 5 6 6 7 6 6 7 6 7 6 7 8 11
8 9 9 9 9 8 8 9 9 7 6 7 7 7 7 6 6 6 7 8 8 8 9 9 9 13 9 8 8 8 6 7 7 8 8 7 6 7 8 10 12 12 10 10 9 9 9 8 7 7 7 6 6 7 6 5 6 6 7 6 6 6 9
9 10 8 8 9 9 10 9 10 8 5 8 7 8 7 7 7 6 7 9 12 10 8 7 8 7 7 6 7 8 7 6 7 7 7 8 7 7 7 7 5 8 9 9 8 9 9 9 7 8 6 7 7 7 6 4 6 6 7 6 6 9 9
12 10 7 8 10 8 11 11 11 10 13 14 15 16 16 15 16 16 12 11 13 10 10 9 9 8 7 8 7 8 8 8 7 8 7 6 7 8 7 7 7 8 8 8 8 9 8 9 7 8 7 7 8 8 6 6 6 6 6 6 6 8 9
22 23 20 14 12 10 15 18 19 19 17 16 16 18 19 19 18 17 16 14 10 8 8 9 9 9 7 8 7 8 8 8 8 8 8 8 6 6 7 8 8 8 7 8 8 8 8 8 7 9 7 8 8 8 7 5 5 6 5 7 8 9 9
21 21 21 22 19 15 12 14 16 16 15 15 16 19 20 20 19 19 17 14 13 11 10 8 9 9 9 7 8 9 8 8 8 8 8 8 8 8 6 7 8 7 7 8 8 8 8 8 8 8 8 8 8 8 8 6 6 5 6 7 6 8 9
18 19 19 20 20 21 18 17 16 17 18 19 20 20 18 18 19 17 15 14 11 10 11 9 8 9 9 8 9 8 8 8 8 8 8 7 8 9 8 7 7 7 8 8 8 8 8 8 8 8 8 8 8 8 9 7 7 6 6 6 8 8 8
17 17 16 16 17 17 16 16 17 17 19 20 20 19 18 16 12 14 15 13 10 8 10 8 8 9 9 8 8 8 8 8 8 7 8 8 8 8 8 8 6 6 8 8 8 8 8 8 8 8 8 8 7 8 8 8 8 6 7 7 7 9 8
6 8 11 10 9 10 14 16 17 17 17 18 17 17 16 16 11 9 7 7 8 9 9 9 9 9 9 8 8 8 7 9 8 8 8 8 8 8 8 7 7 7 7 7 8 8 8 8 8 8 8 8 9 8 8 8 8 7 7 8 8 8 9
11 8 6 12 15 16 16 17 17 17 17 17 17 17 14 9 8 8 7 7 7 8 9 9 9 9 9 8 8 8 8 8 9 8 8 8 8 9 8 8 8 8 7 7 8 9 8 8 8 8 8 8 9 10 10 9 8 8 8 8 8 8 8
Wind_Direction
177 187 173 202 243 239 248 250 257 256 261 261 263 259 255 266 259 263 268 264 271 249 255 260 263 265 257 250 259 260 254 254 254 246 249 243 244 250 247 244 253 264 278 283 260 287 293 298 304 297 294 298 301 303 306 307 305 306 304 302 301 302 305
188 188 200 229 248 235 233 241 239 241 249 259 269 270 244 260 268 264 270 265 268 261 248 252 261 266 259 242 249 254 252 247 247 245 247 251 239 248 255 237 253 262 268 289 295 290 286 291 297 293 297 301 310 305 306 305 304 302 298 299 303 302 299
193 207 223 240 239 237 242 241 248 246 248 254 261 271 268 251 257 265 270 269 264 264 254 255 253 260 253 247 252 250 248 237 244 238 242 253 242 248 251 247 243 264 273 279 288 292 295 293 295 289 302 303 297 298 302 302 303 306 302 296 301 300 294
214 215 224 235 240 239 247 248 246 246 235 247 253 264 273 272 261 258 257 257 263 263 254 252 262 259 246 240 249 255 249 238 232 235 244 252 253 245 252 251 246 251 266 281 288 288 284 298 300 295 292 296 296 298 299 295 299 295 295 300 296 292 296
212 227 227 235 240 246 243 242 241 246 246 243 243 254 266 270 269 265 259 257 257 259 256 254 251 261 245 237 249 258 251 238 237 239 240 251 251 248 251 250 251 256 257 273 277 288 281 291 288 287 293 296 302 300 288 294 294 300 300 297 288 294 293
224 218 238 238 245 242 245 243 241 244 251 251 251 255 261 265 267 266 265 262 257 256 252 254 256 257 249 242 243 257 254 243 244 245 248 255 255 254 253 254 257 255 260 263 272 280 294 283 294 298 284 296 293 300 304 296 291 292 289 298 304 294 296
227 239 236 246 244 245 243 248 243 246 251 254 251 252 257 264 265 266 267 262 259 256 252 252 252 254 247 244 242 249 251 251 251 247 251 253 257 256 258 260 259 259 261 265 275 278 273 288 276 275 294 292 282 284 288 303 309 296 277 297 307 307 296
238 245 236 245 243 248 245 248 249 247 248 250 248 249 256 256 264 269 268 267 262 256 253 250 250 249 248 245 243 241 248 242 251 247 253 254 254 252 255 257 260 259 260 265 269 272 284 275 286 284 268 284 291 294 286 268 310 312 317 311 297 293 305
233 245 251 251 249 252 247 247 250 243 243 249 251 240 252 256 259 262 267 268 263 258 253 250 248 246 246 247 253 252 248 245 243 242 251 252 248 255 254 259 257 258 262 263 264 274 268 277 279 277 292 300 300 306 308 317 317 301 301 304 306 296 278
238 238 248 257 258 252 245 247 244 247 247 245 241 244 241 248 251 254 257 260 264 261 253 249 245 247 257 258 252 252 250 246 243 243 246 253 249 254 256 257 261 261 260 263 269 269 279 279 278 289 293 298 303 312 314 310 312 304 305 306 297 290 253
240 241 242 247 255 258 251 248 247 248 261 266 262 249 226 230 247 252 248 250 253 260 260 257 252 247 255 263 262 259 259 257 254 251 251 253 254 255 256 259 262 262 269 276 275 286 288 286 292 297 306 301 309 311 305 302 300 296 304 307 317 315 313
240 244 244 249 254 257 256 252 244 257 270 271 271 269 259 234 221 229 241 254 258 261 265 267 266 264 261 257 254 255 258 265 275 281 283 284 284 281 279 277 277 282 284 279 285 283 277 288 287 299 303 301 307 299 293 288 289 292 296 300 301 295 295
243 247 242 242 255 259 256 255 247 260 271 274 275 274 272 260 258 262 258 256 257 259 262 264 265 266 263 268 281 289 287 284 281 279 275 273 274 274 273 273 273 272 272 281 276 278 279 272 296 293 289 289 284 281 286 294 291 289 286 288 288 290 296
246 251 248 241 248 258 261 258 245 262 273 275 275 275 274 262 258 252 252 253 254 257 262 267 276 280 281 282 285 276 269 263 264 264 265 266 262 263 263 263 266 266 266 264 264 267 270 272 268 276 279 276 278 282 281 286 288 291 294 299 294 301 295
248 250 245 244 244 255 264 257 249 263 273 275 276 277 279 276 276 271 269 269 272 274 275 276 278 276 276 277 276 270 269 262 260 262 263 264 264 260 258 254 250 250 250 252 252 252 254 259 252 252 258 261 264 263 273 278 292 313 313 305 298 288 284
244 253 250 244 243 254 264 263 251 266 274 277 279 282 282 276 272 270 268 268 266 269 270 267 264 264 263 266 264 268 271 268 267 264 267 268 268 265 261 255 251 257 262 256 247 236 239 243 243 247 249 257 265 265 289 315 318 313 313 312 304 295 307
244 243 247 250 242 247 263 270 261 262 271 276 279 283 280 274 268 266 267 265 268 267 265 262 254 249 254 259 258 264 265 266 270 269 268 269 269 267 268 269 267 269 273 277 279 280 282 285 292 302 306 307 308 309 320 331 316 302 318 306 305 300 305
255 253 243 247 253 244 260 270 265 260 269 275 279 279 277 273 271 272 272 275 268 267 263 257 257 253 246 246 252 258 260 267 269 263 261 261 275 286 285 280 273 263 261 269 280 286 290 292 292 293 294 294 294 297 298 281 281 293 310 290 284 292 303
255 266 259 243 250 255 256 268 272 268 268 273 277 280 270 265 262 264 265 269 272 267 266 262 255 247 243 246 251 256 267 277 279 279 282 281 276 272 269 269 264 253 274 281 277 268 268 270 269 271 272 274 275 278 280 268 266 280 272 279 281 283 303
255 266 271 264 253 257 255 264 271 269 268 271 277 279 280 276 275 272 276 276 274 279 272 264 256 246 245 250 257 263 270 278 274 266 257 252 251 259 268 286 264 267 271 277 274 278 272 271 271 266 259 259 256 259 257 258 251 249 250 264 272 275 273
261 265 272 271 261 257 256 249 262 270 268 267 268 271 272 260 255 260 263 266 269 267 273 274 265 248 232 243 249 257 262 270 274 274 272 266 268 272 286 294 283 283 278 275 276 278 279 274 271 263 252 250 244 245 242 246 254 246 241 248 259 271 269
266 268 274 274 266 257 260 252 244 262 265 264 262 267 268 268 261 257 263 267 266 267 266 265 266 263 244 258 262 263 266 272 276 279 281 283 284 284 283 280 277 278 278 275 277 277 275 272 267 263 254 247 242 238 240 237 240 241 241 242 243 250 264
266 267 272 277 271 262 257 251 251 245 253 258 258 258 258 256 257 256 257 260 265 263 268 266 266 260 269 266 266 264 268 274 276 276 268 271 273 274 274 277 277 278 278 275 273 271 269 268 259 262 262 255 249 239 229 234 237 241 244 247 247 249 251
261 261 268 276 284 277 262 246 243 247 245 250 253 256 257 259 261 262 259 253 257 265 267 275 273 259 268 269 268 270 272 274 273 271 272 274 275 276 278 276 273 266 264 266 265 264 265 265 256 249 261 254 246 241 227 231 235 243 245 246 251 253 255
260 260 267 274 277 282 283 266 248 251 250 250 251 255 260 263 266 267 269 271 271 272 272 265 265 264 265 268 275 279 282 281 276 273 273 273 273 273 265 263 257 259 257 260 258 259 262 262 254 247 252 252 249 249 240 238 245 244 245 249 254 255 256
263 263 263 268 271 275 279 283 274 260 251 248 252 254 256 260 262 265 265 265 269 265 263 267 271 274 276 277 275 277 273 271 266 262 264 267 267 259 254 251 256 257 255 256 262 258 261 263 264 259 252 250 252 252 250 243 251 251 256 252 260 270 266
257 262 263 265 268 272 275 276 274 268 256 247 249 252 256 260 265 266 270 270 265 269 269 272 272 272 271 273 270 268 271 273 275 276 273 267 262 259 256 255 249 252 252 257 258 262 261 265 263 266 264 259 252 254 249 221 244 248 256 253 255 260 275
249 250 253 260 267 273 276 276 275 267 255 254 247 253 249 248 254 253 249 257 258 255 259 263 266 270 266 267 270 269 264 263 261 264 269 263 253 248 246 247 250 251 250 251 252 259 266 268 266 263 255 251 245 250 249 225 234 236 259 241 264 273 273
253 252 247 248 260 269 276 273 272 270 227 230 237 250 264 266 254 245 243 245 262 266 254 248 257 250 257 244 259 267 263 261 264 261 252 256 254 248 245 246 238 247 249 252 253 257 259 265 263 265 259 257 263 256 254 224 237 240 241 258 228 253 269
248 251 251 256 252 233 253 263 269 280 275 272 273 273 272 274 278 280 278 280 277 275 278 270 266 262 259 264 259 266 269 268 263 269 267 254 245 245 242 238 240 240 249 248 248 251 256 259 260 265 263 260 262 270 252 233 223 244 220 245 246 260 265
249 254 254 253 270 258 248 260 267 273 276 279 279 282 285 287 286 284 283 281 283 271 261 270 268 268 257 257 260 262 267 269 268 266 267 267 257 245 241 248 248 245 243 245 250 251 249 253 252 261 263 266 266 269 269 257 233 237 237 238 252 262 273
257 258 259 259 258 266 274 269 269 271 276 279 284 287 289 287 286 286 286 284 279 273 266 255 264 271 267 261 260 261 261 262 261 262 260 267 272 265 241 237 245 243 238 247 249 252 253 251 253 256 262 261 268 268 270 263 261 235 243 248 243 248 262
261 263 265 266 268 269 270 275 280 282 285 286 287 287 285 284 284 284 281 279 268 258 267 259 256 260 266 263 262 264 260 259 256 259 261 257 260 269 268 248 247 243 246 246 245 249 253 253 254 258 261 262 264 267 272 266 263 257 245 246 258 262 253
258 262 264 265 268 271 273 273 276 279 281 283 283 283 283 282 281 278 272 260 258 252 256 259 258 257 258 260 259 259 259 260 259 257 259 262 258 261 265 264 254 244 248 252 252 254 259 259 258 257 263 267 263 260 263 266 264 255 258 257 250 261 265
267 246 253 262 264 260 263 267 269 271 273 275 276 277 280 288 287 281 269 256 248 253 256 258 256 260 261 259 261 261 257 264 265 264 263 262 267 266 264 265 257 252 249 250 253 252 253 251 253 254 252 258 266 269 265 263 262 257 249 261 265 262 269
283 284 267 259 262 261 262 263 266 268 269 269 272 278 288 286 277 274 260 247 240 240 253 252 256 257 262 260 260 261 260 258 263 262 263 263 264 267 266 264 264 260 257 254 252 256 256 255 253 250 254 257 256 256 261 262 259 259 257 254 260 261 262